• MPC Preparation (Info)

  • MPEC 2019-O56 : 2019 OK

    The following Minor Planet Electronic Circular may be linked-to from your own Web pages, but must not otherwise be redistributed electronically.

    A form allowing access to any MPEC is at the bottom of this page.


    Read MPEC 2019-O55 Read MPEC 2019-O57


    M.P.E.C. 2019-O56                                Issued 2019 July 24, 22:17 UT  
    
         The Minor Planet Electronic Circulars contain information on unusual
             minor planets and routine data on comets.  They are published
        on behalf of Division F of the International Astronomical Union by the
              Minor Planet Center, Smithsonian Astrophysical Observatory,
                              Cambridge, MA 02138, U.S.A.
    
                 Prepared using the Tamkin Foundation Computer Network
    
                                  MPC@CFA.HARVARD.EDU
                URL https://www.minorplanetcenter.net/    ISSN 1523-6714
    
                                     2019 OK                                 
    
    Observations:
         K19O00K  C2019 06 28.48696320 39 38.147-19 56 30.33         22.9 GVEO056F51
         K19O00K  C2019 06 28.49473420 39 38.257-19 56 29.69         22.7 GVEO056F51
         K19O00K  C2019 06 28.49666720 39 38.312-19 56 29.55         22.7 GVEO056F51
         K19O00K  C2019 06 28.50443620 39 38.462-19 56 29.22         22.2 GVEO056F51
         K19O00K  C2019 06 28.50637220 39 38.464-19 56 29.05         22.9 GVEO056F51
         K19O00K  C2019 06 28.51608020 39 38.628-19 56 28.52         22.6 GVEO056F51
         K19O00K  C2019 07 07.46783920 42 50.466-19 49 13.96         21.2 GVEO056F51
         K19O00K  C2019 07 07.48023920 42 50.498-19 49 13.85         21.2 GVEO056F51
         K19O00K  C2019 07 07.49263920 42 50.520-19 49 13.54         21.2 GVEO056F51
         K19O00K  C2019 07 07.50505120 42 50.547-19 49 13.23         21.3 GVEO056F51
         K19O00K  C2019 07 21.57190620 46 26.26 -19 58 27.2          17.01oVEO056T05
         K19O00K  C2019 07 21.57515320 46 26.18 -19 58 27.4          17.34oVEO056T05
         K19O00K  C2019 07 21.57936020 46 26.09 -19 58 28.0          17.03oVEO056T05
         K19O00K  C2019 07 21.58027820 46 26.06 -19 58 27.8          17.33oVEO056T05
         K19O00K  C2019 07 21.58260920 46 26.03 -19 58 28.4          17.27oVEO056T05
         K19O00K  C2019 07 21.58692320 46 25.96 -19 58 28.2          17.29oVEO056T05
         K19O00K  C2019 07 21.59058920 46 25.88 -19 58 28.1          17.20oVEO056T05
         K19O00K  C2019 07 21.59619620 46 25.80 -19 58 28.7          17.21oVEO056T05
         K19O00K* C2019 07 24.04935 20 52 20.69 -20 33 17.3          14.7 RqEO056Y00
         K19O00K  C2019 07 24.05031 20 52 20.95 -20 33 21.0          14.7 RqEO056Y00
         K19O00K  C2019 07 24.05128 20 52 21.22 -20 33 25.0          14.7 RqEO056Y00
         K19O00K  C2019 07 24.42498 20 55 45.07 -21 16 47.6          14.2 ggEO056711
         K19O00K  C2019 07 24.42620 20 55 46.09 -21 16 59.8          14.2 ggEO056711
         K19O00K  C2019 07 24.42742 20 55 47.19 -21 17 09.0          14.2 ggEO056711
         K19O00K  C2019 07 24.43590 20 56 47.81 -21 17 21.3          14.1 ggEO056F65
         K19O00K  C2019 07 24.43717 20 56 48.71 -21 17 36.7          14.1 ggEO056F65
         K19O00K  C2019 07 24.43843 20 56 49.87 -21 17 51.2          14.1 ggEO056F65
         K19O00K KC2019 07 24.86482121 26 16.767-24 43 53.23         11.4 GVEO056L28
         K19O00K KC2019 07 24.86495921 26 18.502-24 44 05.38         11.5 GVEO056L28
         K19O00K KC2019 07 24.86509821 26 20.254-24 44 18.30         11.5 GVEO056L28
         K19O00K KC2019 07 24.86523721 26 22.025-24 44 31.48         11.5 GVEO056L28
    
    Observer details:
    711 McDonald Observatory, Fort Davis.  Observer .  Measurer K. Stanek.  
        0.14-m refractor + CCD.
    F51 Pan-STARRS 1, Haleakala.  Observers J. Bulger, K. Chambers, T. Lowe,
        E. Magnier, A. Schultz, M. Willman.  Measurers S. Chastel, M. Huber,
        Y. Ramanjooloo, R. Wainscoat, R. Weryk.  1.8-m Ritchey-Chretien + CCD.
    F65 Haleakala-Faulkes Telescope North.  Observer .  Measurer K. Stanek.  
        0.14-m refractor + CCD.
    L28 ISON-Castelgrande Observatory.  Observer S. Schmalz.  Measurers M. Micheli,
        S. Schmalz.  0.22-m f/2.3 reflector + CCD.
    T05 ATLAS-HKO, Haleakala.  Observers L. Denneau, J. Tonry, A. Heinze,
        H. Weiland, H. Flewelling.  Measurers L. Denneau, J. Tonry, A. Heinze,
        H. Weiland, H. Flewelling, B. Stalder, A. Fitzsimmons, D. Young,
        N. Erasmus.  0.5-m reflector + CCD.
    Y00 SONEAR Observatory, Oliveira.  Observers C. Jacques, E. Pimentel,
        J. Barros.  Measurer C. Jacques.  0.28-m f/2.2 astrograph + CCD.
    
    Orbital elements:
    2019 OK                                                  Earth MOID = 0.0004 AU
    Epoch 2019 Apr. 27.0 TT = JDT 2458600.5                 MPC
    M 310.40979              (2000.0)            P               Q
    n   0.36380148     Peri.  104.24511     +0.68795263     -0.72546182
    a   1.9433890      Node   302.26734     +0.65609909     +0.63383447
    e   0.7613543      Incl.    1.39922     +0.31025015     +0.26825177
    P   2.71           H   23.3           G   0.15           U   2
    Residuals in seconds of arc
    190628 F51  0.5+  0.1+    190721 T05  0.4-  0.1-    190724 711 (7.2+  5.6-)
    190628 F51  0.2+  0.2+    190721 T05  0.4-  0.4-    190724 711 (9.3+  5.3-)
    190628 F51  0.5+  0.3+    190721 T05  0.5-  0.1-    190724 F65 (4.1+  1.2-)
    190628 F51  0.7+  0.1+    190721 T05  0.3-  0.6-    190724 F65 (2.7+  4.4-)
    190628 F51  0.3+  0.2+    190721 T05  0.1-  0.2-    190724 F65 (5.1+  6.8-)
    190628 F51  0.3+  0.1+    190721 T05  0.3-  0.1+    190724 L28  0.1+  0.0
    190707 F51  0.4-  0.0     190721 T05  0.2-  0.3-    190724 L28  0.0   0.5+
    190707 F51  0.4-  0.1-    190724 Y00  0.5-  1.0-    190724 L28  0.0   0.3+
    190707 F51  0.5-  0.0     190724 Y00  0.4-  1.0-    190724 L28  0.2+  0.1-
    190707 F51  0.5-  0.0     190724 Y00  0.3-  1.2-
    190721 T05  0.2-  0.1-    190724 711 (6.1+  2.9-)
    
    Ephemeris:
    2019 OK                  a,e,i = 1.94, 0.76, 1                   q = 0.4638
    Date    TT    R. A. (2000) Decl.     Delta      r    Elong.  Phase     V
    2019 06 24    20 37 28.6 -20 02 04   0.4613  1.4203   145.3    24.0    23.5
    ...
    2019 07 09    20 43 14.5 -19 48 12   0.2294  1.2327   158.3    17.8    21.5
    ...
    2019 07 17    20 45 00.4 -19 48 32   0.1136  1.1267   165.4    13.1    19.6
    ...
    2019 07 23    20 48 05.8 -20 07 15   0.02888 1.0445   170.4     9.3    16.3
    2019 07 24    20 51 33.5 -20 31 33   0.01485 1.0306   170.5     9.4    14.8
    2019 07 25    22 52 35.6 -30 39 25   0.0009351.0166   143.0    37.0     9.7
    ...
    2019 07 31    08 47 21.6 +20 00 59   0.08364 0.9317     2.6   177.2
    ...
    2019 08 08    08 48 03.9 +20 02 26   0.1997  0.8160     6.3   172.2
    ...
    2019 08 23    08 53 49.9 +19 22 57   0.4510  0.6029    18.9   147.0    28.4
    
    A. U. Tomatic                (C) Copyright 2019 MPC           M.P.E.C. 2019-O56
    


    Read MPEC 2019-O55 Read MPEC 2019-O57


    MPEC number:

    Enter an MPEC number in one of the following forms:

    • 1997-B01 (the full form)
    • J97B01 (the packed version of the full form)
    • B01 (the abbreviated form)